Weather History for Vicksburg, MS

Change the Weather History Date:

Thursday, March 7, 2013

  Actual Average Record
Temperature  
Mean Temperature 47 °F 55 °F  
Max Temperature 61 °F 66 °F 84 °F (2009)
Min Temperature 33 °F 44 °F 27 °F (1954)
Degree Days  
Heating Degree Days 18 11  
Month to date heating degree days 142 79  
Since 1 July heating degree days 1912 2055  
Cooling Degree Days 0 1  
Month to date cooling degree days 0 4  
Year to date cooling degree days 18 13  
Moisture  
Dew Point 32 °F    
Average Humidity 61    
Maximum Humidity 89    
Minimum Humidity 32    
Precipitation  
Precipitation 0.00 in 0.20 in 1.67 in (1995)
Month to date precipitation 0.01 1.34  
Year to date precipitation 22.84 11.68  
Sea Level Pressure  
Sea Level Pressure 30.33 in    
Wind  
Wind Speed 2 mph (ENE)    
Max Wind Speed 9 mph    
Max Gust Speed 14 mph    
Visibility 10 miles    
Events      
T = Trace of Precipitation, MM = Missing Value Source: NWS Daily Summary

Daily Weather History Graph

Daily Weather History Graph

Search for Another Location

Airport:

Trip Planner

Search our weather history database for the weather conditions in past years. The results will help you decide how hot, cold, wet, or windy it might be!

Date:

Astronomy

Mar. 07, 2013 Rise Set
Actual Time 6:24 AM CST 6:06 PM CST
Civil Twilight 5:59 AM CST 6:30 PM CST
Nautical Twilight 5:31 AM CST 6:59 PM CST
Astronomical Twilight 5:02 AM CST 7:27 PM CST
Moon 3:11 AM CST (3/7) 2:05 PM CST (3/7)
Length of Visible Light 12h 31m
Length of Day
11h 42m
Waning Crescent, 20% of the Moon is Illuminated
Mar 7
Waning Crescent
Mar 11
New
Mar 19
First Quarter
Mar 27
Full
Apr 2
Last Quarter

Hourly Weather History & Observations

Time (CST) Temp. Windchill Dew Point Humidity Pressure Visibility Wind Dir Wind Speed Gust Speed Precip Events Conditions
12:53 AM 37.9 °F - 32.0 °F 79% 30.33 in 10.0 mi Calm Calm - N/A   Clear
1:53 AM 35.1 °F - 30.9 °F 85% 30.33 in 10.0 mi Calm Calm - N/A   Clear
2:53 AM 37.0 °F 34.5 °F 32.0 °F 82% 30.32 in 10.0 mi NNE 3.5 mph - N/A   Clear
3:53 AM 34.0 °F 31.0 °F 30.0 °F 85% 30.32 in 10.0 mi ENE 3.5 mph - N/A   Clear
4:53 AM 36.0 °F 32.1 °F 30.0 °F 79% 30.33 in 10.0 mi ENE 4.6 mph - N/A   Clear
5:53 AM 35.1 °F - 30.0 °F 82% 30.35 in 10.0 mi Calm Calm - N/A   Clear
6:53 AM 36.0 °F 33.3 °F 30.9 °F 82% 30.38 in 10.0 mi NE 3.5 mph - N/A   Clear
7:53 AM 39.9 °F 37.8 °F 32.0 °F 73% 30.40 in 10.0 mi East 3.5 mph - N/A   Clear
8:53 AM 44.1 °F 40.1 °F 32.0 °F 63% 30.41 in 10.0 mi East 6.9 mph - N/A   Clear
9:53 AM 48.0 °F - 30.9 °F 52% 30.42 in 10.0 mi SE 5.8 mph - N/A   Clear
10:53 AM 50.0 °F - 30.9 °F 48% 30.40 in 10.0 mi Calm Calm - N/A   Clear
11:53 AM 53.1 °F - 32.0 °F 45% 30.38 in 10.0 mi SE 3.5 mph - N/A   Clear
12:53 PM 55.0 °F - 30.0 °F 38% 30.34 in 10.0 mi Variable 3.5 mph - N/A   Clear
1:53 PM 57.0 °F - 30.0 °F 36% 30.32 in 10.0 mi ENE 3.5 mph - N/A   Clear
2:53 PM 60.1 °F - 30.0 °F 32% 30.31 in 10.0 mi Calm Calm - N/A   Clear
3:53 PM 60.1 °F - 30.9 °F 33% 30.29 in 10.0 mi Calm Calm - N/A   Clear
4:53 PM 60.1 °F - 30.0 °F 32% 30.28 in 10.0 mi Calm Calm - N/A   Clear
5:53 PM 57.0 °F - 30.9 °F 37% 30.28 in 10.0 mi Calm Calm - N/A   Clear
6:53 PM 48.9 °F - 32.0 °F 52% 30.30 in 10.0 mi NNW 3.5 mph - N/A   Clear
7:53 PM 44.1 °F 41.5 °F 39.0 °F 82% 30.29 in 10.0 mi NNE 4.6 mph - N/A   Clear
8:53 PM 44.1 °F 41.5 °F 35.1 °F 71% 30.29 in 10.0 mi NNE 4.6 mph - N/A   Clear
9:53 PM 45.0 °F 43.5 °F 34.0 °F 65% 30.30 in 10.0 mi NNE 3.5 mph - N/A   Clear
10:53 PM 41.0 °F - 34.0 °F 76% 30.29 in 10.0 mi Calm Calm - N/A   Clear
11:53 PM 39.0 °F - 33.1 °F 79% 30.29 in 10.0 mi Calm Calm - N/A   Clear